[[{"header":{"parameterUnit":"m.s-1","parameterCategory":1,"la1":30.2991,"la2":30.254,"lo1":-89.0895,"lo2":-89.0444,"dy":0.0017,"dx":0.0017,"nx":28,"ny":28,"refTime":"2025-04-13T09:00:00:Z","depth":0,"parameterNumber":2,"parameterNumberName":"U-component_of_WINDS"},"data":[0,0,0,0,0,0,0,0,0,0,0,0,0,0,0,0,0,0,0,0,0,0,0,0,0,0,0,0,0,0,0,0,0,0,0,0,0,0,0,0,0,0,0,0,0,0,0,0,0,0,0,0,0,0,0,0,0,0,3.5728,3.5729,0,3.5779,3.578,3.578,3.5746,3.5744,3.5742,3.5741,3.5795,3.5798,3.5801,0,0,0,0,0,0,0,0,0,0,0,0,0,3.5602,3.5605,3.5728,3.5729,3.5729,3.5779,3.578,3.578,3.5746,3.5744,3.5742,3.574,3.5794,3.5797,3.5801,0,0,0,0,0,0,0,0,0,0,0,0,0,3.5655,3.5605,3.5728,3.5718,3.5718,3.5779,3.578,3.5781,3.5746,3.5744,3.5741,3.5739,3.5793,3.5797,3.5801,3.5876,0,0,3.5815,3.5817,0,0,0,0,0,0,0,0,3.5652,3.566,3.5719,3.5719,3.5719,3.5754,3.5755,3.5813,3.5747,3.5735,3.5741,3.5738,3.5783,3.5788,3.5803,3.5878,3.5881,3.5815,3.5818,3.582,3.5821,0,0,0,0,0,0,0,3.5649,3.5658,3.5748,3.572,3.572,3.5711,3.5716,3.5766,3.5772,3.5736,3.5734,3.574,3.5783,3.5799,3.5804,3.5882,3.5815,3.5819,3.5822,3.5823,3.602,3.6022,0,0,0,0,0,0,3.5646,3.5655,3.5747,3.575,3.5679,3.5716,3.5721,3.5745,3.5771,3.5773,3.5742,3.5738,3.5793,3.5799,3.5806,3.5894,3.582,3.5824,3.5826,3.6017,3.602,3.6023,0,0,0,0,0,0,3.5643,3.5654,3.5745,3.5702,3.5713,3.572,3.5747,3.5747,3.5763,3.5776,3.5777,3.5758,3.5791,3.58,3.5858,3.5895,3.5826,3.583,3.6014,3.6018,3.6022,3.6071,0,0,0,0,0,0,3.564,3.5654,3.5682,3.5703,3.5715,3.5796,3.5749,3.575,3.5771,3.5766,3.5791,3.5792,3.579,3.5852,3.5863,3.59,3.5833,3.6011,3.6016,3.602,3.6066,3.6076,3.6084,0,0,0,0,0,3.5635,3.5694,3.5683,3.5694,3.575,3.5798,3.5805,3.5801,3.5774,3.5802,3.581,3.5792,3.589,3.5858,3.587,3.5909,3.6008,3.6014,3.602,3.6062,3.6074,3.6084,0,0,0,0,0,0,3.5678,3.5697,3.5685,3.5752,3.5774,3.5792,3.5828,3.5814,3.5844,3.5839,3.5832,3.5838,3.5899,3.591,3.5875,3.5982,3.5945,3.5953,3.5973,3.5984,3.5993,3.5989,3.5837,0,0,0,0,0,3.5695,3.5732,3.5747,3.5804,3.5816,3.582,3.5841,3.5835,3.5858,3.5867,3.5879,3.5902,3.5938,3.5962,3.5996,3.6068,3.6072,3.61,3.611,3.6117,3.6124,3.6162,3.6175,3.6042,3.6042,3.6042,0,0,3.5731,3.5746,3.5769,3.5813,3.5829,3.5868,3.5828,3.5871,3.5899,3.5874,3.5929,3.5939,3.5965,3.603,3.6059,3.6041,3.6162,3.6125,3.6131,3.6134,3.6169,3.6182,3.6193,3.6046,3.6045,3.6045,0,0,3.5815,3.5831,3.588,3.5897,3.5922,3.5924,3.5936,3.5957,3.5962,3.6018,3.5999,3.6033,3.6096,3.6114,3.6131,3.6223,3.6207,3.6234,3.6282,3.6319,3.633,3.6339,3.6371,3.6382,3.6242,3.6242,3.6242,0,3.5856,3.5913,3.5907,3.5951,3.5971,3.5949,3.5999,3.6016,3.6051,3.6065,3.6044,3.6121,3.6136,3.6205,3.6227,3.6243,3.6256,3.6231,3.6329,3.6338,3.6346,3.6376,3.6388,3.6245,3.6244,3.6244,3.6244,0,3.5963,3.6003,3.604,3.6073,3.6097,3.6144,3.6145,3.617,3.6163,3.6167,3.6224,3.6242,3.6278,3.6295,3.6288,3.6363,3.635,3.6329,3.6291,3.6362,3.639,3.6402,3.6249,3.6248,3.6247,3.6246,0,0,3.6074,3.6104,3.6117,3.6132,3.6158,3.6188,3.6234,3.6269,3.6291,3.6316,3.6354,3.6407,3.6387,3.6407,3.6403,3.6435,3.6505,3.641,3.6411,3.6426,3.6587,3.6602,3.6615,3.6495,3.6498,3.6499,3.6585,0,3.6159,3.6238,3.6234,3.6309,3.6345,3.6325,3.6365,3.6385,3.6391,3.6423,3.643,3.6467,3.6439,3.645,3.6482,3.649,3.6538,3.6484,3.653,3.6532,3.6523,3.663,3.6646,3.6726,3.6596,3.6598,3.6599,0,3.6269,3.6297,3.6374,3.6394,3.6409,3.6445,3.6477,3.6508,3.653,3.6532,3.6555,3.6545,3.6591,3.6553,3.6617,3.658,3.6599,3.6606,3.6609,3.6612,3.6569,3.6635,3.6751,3.6763,3.6617,3.6615,3.6614,0,3.6341,3.6398,3.6452,3.6465,3.649,3.6515,3.6527,3.6547,3.6569,3.6597,3.661,3.6644,3.6662,3.6688,3.6687,3.666,3.6751,3.6713,3.6754,3.6754,3.6773,3.6772,3.6893,3.6788,3.6787,3.6787,3.6787,0,3.6435,3.6484,3.6484,3.6517,3.6571,3.6566,3.6619,3.6628,3.6646,3.668,3.6666,3.6698,3.6696,3.6729,3.6729,3.6781,3.679,3.6793,3.6792,3.6793,3.6793,3.6805,3.6798,3.679,3.679,3.6789,3.6789,0,3.6524,3.6527,3.6584,3.6603,3.6609,3.6647,3.6663,3.6694,3.6699,3.6743,3.6753,3.676,3.6798,3.68,3.6845,3.6845,3.6908,3.6902,3.69,3.6898,3.6938,3.6934,3.707,3.7087,3.6972,3.6973,3.6974,0,3.6584,3.662,3.6643,3.6664,3.6677,3.6713,3.6734,3.6731,3.6754,3.6782,3.681,3.6847,3.6876,3.6938,3.6947,3.6981,3.6975,3.702,3.698,3.6979,3.6974,3.6971,3.6974,3.7027,3.7029,3.703,3.7031,0,3.6688,3.6688,3.6719,3.6751,3.6777,3.6802,3.6825,3.6844,3.6843,3.687,3.6908,3.6931,3.6976,3.7012,3.7045,3.7057,3.7044,3.7043,3.7054,3.7055,3.7052,3.7053,3.692,3.704,3.7039,3.7038,3.7038,3.7037,3.6763,3.6795,3.6815,3.685,3.6867,3.6889,3.6919,3.6928,3.6959,3.6995,3.6992,3.7034,3.7056,3.7098,3.7113,3.7147,3.7131,3.7147,3.7151,3.7155,3.7158,3.7048,3.7153,3.7153,3.7152,3.7152,3.7152,0,3.6866,3.6878,3.6911,3.6943,3.6971,3.6956,3.6981,3.7005,3.7043,3.7064,3.7093,3.7137,3.7172,3.7184,3.7218,3.7242,3.7237,3.7251,3.7249,3.7252,3.7171,3.7157,3.7255,3.7255,3.7255,3.7255,3.7255,3.7255,3.6923,3.6974,3.6976,3.7036,3.7048,3.7089,3.7104,3.7124,3.7141,3.7191,3.722,3.7227,3.7245,3.728,3.7312,3.7315,3.7327,3.7344,3.7344,3.7268,3.7258,3.7248,3.7235,3.7347,3.7347,3.7422,3.7423,3.7423]},{"header":{"parameterUnit":"m.s-1","parameterCategory":1,"la1":30.2991,"la2":30.254,"lo1":-89.0895,"lo2":-89.0444,"dy":0.0017,"dx":0.0017,"nx":28,"ny":28,"refTime":"2025-04-13T09:00:00:Z","depth":0,"parameterNumber":3,"parameterNumberName":"V-component_of_WINDS"},"data":[0,0,0,0,0,0,0,0,0,0,0,0,0,0,0,0,0,0,0,0,0,0,0,0,0,0,0,0,0,0,0,0,0,0,0,0,0,0,0,0,0,0,0,0,0,0,0,0,0,0,0,0,0,0,0,0,0,0,4.6212,4.6213,0,4.6322,4.6324,4.6325,4.6346,4.6345,4.6344,4.6344,4.645,4.6454,4.6457,0,0,0,0,0,0,0,0,0,0,0,0,0,4.6014,4.6018,4.6212,4.6214,4.6215,4.6322,4.6324,4.6325,4.6346,4.6345,4.6344,4.6343,4.6449,4.6453,4.6457,0,0,0,0,0,0,0,0,0,0,0,0,0,4.611,4.6019,4.6212,4.6239,4.6242,4.6322,4.6324,4.6325,4.6346,4.6345,4.6344,4.6343,4.6447,4.6453,4.6458,4.6517,0,0,4.6475,4.6477,0,0,0,0,0,0,0,0,4.6104,4.6117,4.6233,4.6237,4.6241,4.6319,4.6293,4.6389,4.6347,4.6307,4.6344,4.6342,4.6407,4.6416,4.6439,4.6522,4.6527,4.6475,4.6478,4.6481,4.6482,0,0,0,0,0,0,0,4.6098,4.6112,4.6256,4.6235,4.624,4.6243,4.6255,4.6311,4.6362,4.631,4.6312,4.6325,4.6409,4.6434,4.6442,4.6528,4.6475,4.648,4.6483,4.6485,4.6665,4.6666,0,0,0,0,0,0,4.6087,4.6107,4.6252,4.6259,4.6168,4.6248,4.6261,4.6295,4.6362,4.6371,4.6326,4.6326,4.6425,4.6435,4.6446,4.6519,4.6481,4.6486,4.6489,4.6663,4.6665,4.6667,0,0,0,0,0,0,4.6083,4.61,4.6248,4.6183,4.6202,4.6252,4.629,4.6298,4.6323,4.6374,4.6383,4.6342,4.6425,4.6438,4.65,4.6523,4.6488,4.6493,4.6661,4.6664,4.6666,4.6667,0,0,0,0,0,0,4.6077,4.6098,4.6123,4.6184,4.6206,4.6302,4.6292,4.6301,4.6333,4.6334,4.6392,4.64,4.6425,4.6491,4.6505,4.653,4.6498,4.666,4.6662,4.6665,4.6665,4.6669,4.6672,0,0,0,0,0,4.607,4.6117,4.6124,4.6141,4.6238,4.6303,4.6315,4.6344,4.6335,4.6359,4.6392,4.6398,4.6518,4.6497,4.6513,4.654,4.6658,4.6662,4.6665,4.6663,4.6668,4.6672,0,0,0,0,0,0,4.6055,4.6126,4.6134,4.6203,4.6247,4.6307,4.6338,4.6349,4.6395,4.6393,4.6425,4.6438,4.6498,4.6525,4.65,4.66,4.6587,4.6594,4.6581,4.6586,4.6589,4.6582,4.6502,0,0,0,0,0,4.6061,4.611,4.6168,4.6223,4.6245,4.6287,4.6317,4.6336,4.6382,4.64,4.6437,4.648,4.6528,4.6558,4.6605,4.6669,4.6681,4.6695,4.6698,4.6701,4.6707,4.6742,4.6749,4.6678,4.6678,4.6678,0,0,4.6071,4.6115,4.6144,4.6221,4.6258,4.6306,4.6303,4.6354,4.639,4.6407,4.6469,4.6497,4.6547,4.661,4.664,4.6635,4.6729,4.6706,4.6707,4.6711,4.6747,4.6753,4.6759,4.668,4.668,4.6679,0,0,4.6115,4.6154,4.6205,4.6242,4.6298,4.6326,4.6338,4.6396,4.6416,4.6479,4.6493,4.6534,4.6616,4.6651,4.6679,4.6736,4.6744,4.675,4.6769,4.6804,4.681,4.6815,4.6835,4.6842,4.6755,4.6755,4.6755,0,4.612,4.6196,4.6228,4.628,4.6313,4.6333,4.6383,4.6416,4.6484,4.6505,4.6499,4.6601,4.6636,4.6708,4.6722,4.6744,4.6758,4.6744,4.6807,4.6812,4.6817,4.6837,4.6845,4.6756,4.6756,4.6756,4.6756,0,4.62,4.6252,4.6286,4.6353,4.639,4.644,4.6478,4.6511,4.6526,4.6554,4.6617,4.6659,4.6715,4.6733,4.6747,4.6807,4.6802,4.68,4.6788,4.6824,4.6843,4.6851,4.6757,4.6756,4.6756,4.6756,0,0,4.6238,4.6323,4.6335,4.6366,4.6429,4.6469,4.6519,4.6576,4.6603,4.6649,4.6691,4.676,4.6759,4.6791,4.681,4.684,4.6883,4.6835,4.6836,4.6842,4.695,4.6951,4.6959,4.6888,4.6889,4.6891,4.6946,0,4.629,4.6384,4.6414,4.6492,4.654,4.6559,4.6603,4.6645,4.6673,4.6716,4.6745,4.6793,4.6789,4.6808,4.6839,4.6871,4.6905,4.6867,4.6926,4.6928,4.6914,4.6969,4.6971,4.7021,4.6954,4.6955,4.6956,0,4.6364,4.6413,4.6496,4.6553,4.6575,4.6614,4.6668,4.671,4.6757,4.6775,4.6811,4.6828,4.6879,4.6863,4.6934,4.6908,4.6934,4.6953,4.6956,4.6962,4.6944,4.6978,4.7038,4.7045,4.6968,4.6967,4.6966,0,4.6384,4.647,4.6531,4.6557,4.6625,4.6652,4.6682,4.6729,4.6761,4.6807,4.6828,4.6879,4.6906,4.6944,4.6973,4.6959,4.7042,4.7028,4.7057,4.7056,4.7073,4.7072,4.7138,4.7089,4.7089,4.7089,4.7089,0,4.6439,4.6488,4.6541,4.6579,4.6634,4.6668,4.6721,4.6751,4.6793,4.6835,4.6854,4.6892,4.6928,4.6971,4.6993,4.7048,4.706,4.7075,4.7081,4.7074,4.7072,4.7091,4.7089,4.7091,4.7091,4.709,4.709,0,4.647,4.6508,4.6576,4.6636,4.6652,4.669,4.6741,4.6777,4.6805,4.6858,4.6872,4.6916,4.6967,4.7,4.7064,4.7079,4.714,4.7144,4.7125,4.7127,4.7154,4.7151,4.7235,4.7248,4.719,4.719,4.7191,0,4.6503,4.6543,4.6607,4.6638,4.6669,4.6717,4.6751,4.6784,4.6818,4.6876,4.6904,4.6957,4.7002,4.7083,4.7119,4.7168,4.7174,4.72,4.7181,4.7173,4.7174,4.7172,4.7176,4.7203,4.7203,4.7204,4.7204,0,4.6558,4.6575,4.6623,4.6679,4.6719,4.6763,4.6807,4.683,4.6871,4.6908,4.6962,4.6996,4.7064,4.7116,4.7168,4.7196,4.7207,4.721,4.7219,4.7213,4.72,4.7208,4.7133,4.7208,4.7207,4.7207,4.7207,4.7207,4.6592,4.6627,4.6679,4.6732,4.677,4.6811,4.6848,4.6882,4.6928,4.6987,4.7003,4.706,4.7105,4.7178,4.7207,4.725,4.7246,4.726,4.7263,4.7266,4.7267,4.7193,4.726,4.7259,4.7259,4.7259,4.7259,0,4.6647,4.6682,4.6731,4.6793,4.6835,4.6843,4.6892,4.6926,4.6976,4.702,4.7064,4.7125,4.7176,4.7216,4.7268,4.7295,4.7301,4.7307,4.7306,4.7312,4.7267,4.7254,4.7301,4.7301,4.7301,4.7301,4.7301,4.7301,4.6681,4.6743,4.6765,4.6845,4.6878,4.6936,4.6963,4.7,4.7035,4.7104,4.7148,4.7174,4.7216,4.7271,4.7317,4.7328,4.7346,4.7351,4.7362,4.732,4.7315,4.731,4.7299,4.7355,4.7355,4.7404,4.7404,4.7405]}]]